Oceana NAS, VA

12:45 PM EDT on August 23, 2017 (GMT -0400)
Oceana Naval Air Station

Weather History for KNTU - July, 2013

Change the Weather History Date:

Thursday, July 25, 2013

  Actual Average Record
Temperature  
Mean Temperature 74 °F -  
Max Temperature 78 °F 83 °F 100 °F (2010)
Min Temperature 69 °F 68 °F 64 °F (2000)
Cooling Degree Days 8    
Growing Degree Days 24 (Base 50)    
Moisture  
Dew Point 68 °F    
Average Humidity 86    
Maximum Humidity 94    
Minimum Humidity 74    
Precipitation  
Precipitation 0.05 in - - ()
Sea Level Pressure  
Sea Level Pressure 29.89 in    
Wind  
Wind Speed 12 mph (NNE)    
Max Wind Speed 21 mph    
Max Gust Speed 29 mph    
Visibility 10 miles    
Events Rain , Thunderstorm    
Averages and records for this station are not official NWS values.
T = Trace of Precipitation, MM = Missing Value Source: NWS Daily Summary

Daily Weather History Graph

Daily Weather History Graph

Search for Another Location

Airport or City:

Trip Planner

Search our weather history database for the weather conditions in past years. The results will help you decide how hot, cold, wet, or windy it might be!

Date:

Astronomy

Jul. 25, 2013 Rise Set
Actual Time 6:04 AM EDT 8:16 PM EDT
Civil Twilight 5:35 AM EDT 8:45 PM EDT
Nautical Twilight 4:59 AM EDT 9:21 PM EDT
Astronomical Twilight 4:20 AM EDT 9:59 PM EDT
Moon 10:03 PM EDT (7/25) 9:24 AM EDT (7/25)
Length of Visible Light 15h 10m
Length of Day
14h 12m
Waning Gibbous, 88% of the Moon is Illuminated
Jul 25
Waning Gibbous
Jul 29
Last Quarter
Aug 6
New
Aug 14
First Quarter
Aug 20
Full

Hourly Weather History & Observations

Time (EDT) Temp. Dew Point Humidity Pressure Visibility Wind Dir Wind Speed Gust Speed Precip Events Conditions
12:28 AM 75.2 °F 71.6 °F 89% 29.82 in 9.0 mi NNE 9.2 mph - N/A Thunderstorm Thunderstorm
12:56 AM 73.9 °F 70.0 °F 87% 29.83 in 10.0 mi NE 12.7 mph - N/A Thunderstorm Thunderstorm
1:36 AM 73.4 °F 69.8 °F 88% 29.85 in 8.0 mi WNW 11.5 mph - 0.00 in Rain , Thunderstorm Light Thunderstorms and Rain
1:56 AM 71.1 °F 68.0 °F 90% 29.84 in 7.0 mi North 11.5 mph 25.3 mph 0.05 in Rain , Thunderstorm Light Thunderstorms and Rain
1:59 AM 71.6 °F 68.0 °F 88% 29.83 in 7.0 mi North 11.5 mph - 0.00 in Rain , Thunderstorm Light Thunderstorms and Rain
2:12 AM 69.8 °F 68.0 °F 94% 29.82 in 10.0 mi North 8.1 mph - 0.00 in Thunderstorm Thunderstorm
2:50 AM 69.8 °F 66.2 °F 88% 29.81 in 10.0 mi NNE 10.4 mph - 0.00 in   Overcast
2:56 AM 70.0 °F 66.0 °F 87% 29.83 in 10.0 mi NNE 12.7 mph - 0.00 in   Overcast
3:56 AM 70.0 °F 68.0 °F 93% 29.81 in 10.0 mi NE 6.9 mph - N/A   Overcast
4:11 AM 71.6 °F 69.8 °F 94% 29.81 in 9.0 mi NE 15.0 mph 21.9 mph N/A   Mostly Cloudy
4:56 AM 71.1 °F 69.1 °F 93% 29.82 in 9.0 mi NE 11.5 mph - N/A   Overcast
5:56 AM 71.1 °F 68.0 °F 90% 29.84 in 10.0 mi North 11.5 mph - N/A   Overcast
6:56 AM 73.0 °F 70.0 °F 90% 29.86 in 10.0 mi NNE 17.3 mph 28.8 mph N/A   Overcast
7:56 AM 72.0 °F 68.0 °F 87% 29.88 in 10.0 mi NE 11.5 mph 21.9 mph N/A   Overcast
8:56 AM 73.0 °F 66.9 °F 81% 29.89 in 10.0 mi NNE 15.0 mph - N/A   Overcast
9:56 AM 72.0 °F 66.9 °F 84% 29.89 in 10.0 mi NNE 18.4 mph 25.3 mph N/A   Mostly Cloudy
10:20 AM 73.4 °F 68.0 °F 83% 29.88 in 10.0 mi NNE 16.1 mph - N/A   Mostly Cloudy
10:56 AM 75.0 °F 68.0 °F 79% 29.90 in 10.0 mi NNE 16.1 mph - N/A   Mostly Cloudy
11:56 AM 77.0 °F 69.1 °F 76% 29.91 in 10.0 mi NNE 16.1 mph 21.9 mph N/A   Mostly Cloudy
12:56 PM 75.0 °F 69.1 °F 82% 29.92 in 10.0 mi North 13.8 mph - N/A   Overcast
1:56 PM 75.9 °F 69.1 °F 79% 29.92 in 10.0 mi North 17.3 mph 24.2 mph N/A   Overcast
2:56 PM 75.9 °F 69.1 °F 79% 29.91 in 10.0 mi North 18.4 mph 23.0 mph N/A   Overcast
3:56 PM 77.0 °F 70.0 °F 79% 29.91 in 10.0 mi North 18.4 mph - N/A   Overcast
4:56 PM 75.9 °F 69.1 °F 79% 29.91 in 10.0 mi North 16.1 mph 23.0 mph N/A   Overcast
5:56 PM 78.1 °F 69.1 °F 74% 29.92 in 10.0 mi North 20.7 mph - N/A   Mostly Cloudy
6:18 PM 77.0 °F 69.8 °F 78% 29.92 in 10.0 mi North 18.4 mph 25.3 mph N/A   Overcast
6:56 PM 73.0 °F 69.1 °F 87% 29.94 in 10.0 mi NE 10.4 mph - N/A   Overcast
7:56 PM 72.0 °F 68.0 °F 87% 29.96 in 10.0 mi NNE 15.0 mph - N/A   Overcast
8:56 PM 71.1 °F 68.0 °F 90% 29.96 in 10.0 mi NNE 11.5 mph - N/A   Overcast
9:44 PM 71.6 °F 68.0 °F 88% 29.97 in 10.0 mi NNE 8.1 mph - N/A   Overcast
9:56 PM 71.1 °F 68.0 °F 90% 29.98 in 10.0 mi NE 10.4 mph - N/A   Mostly Cloudy
10:56 PM 70.0 °F 66.9 °F 90% 30.00 in 10.0 mi NE 12.7 mph - N/A   Overcast
11:56 PM 69.1 °F 66.0 °F 90% 30.01 in 10.0 mi NE 8.1 mph - N/A   Overcast